Showing default

RADUGA 9, 12618

Orbit data source: Space-Track

RADUGA 9, 12618 is a payload satellite owned by GUKOS (CIS) in GEO that was launched on Thu, 30 Jul 1981 UTC via a PROTON-K/DM launch vehicle from the Tyuratam Missile And Space Complex (TTMTR). Payload-class satellites include a variety of spacecraft equipped with specific instruments for various scientific and technological missions. These include communications satellites like Starlink; space stations such as the ISS; scientific satellites like the Hubble; Earth observation satellites from companies like Planet Labs, Umbra, and HawkEye 360; GPS; miniature CubeSats for education and research; and military/defense satellites.

Not visible in the next 10 days
Identifier
12618, 1981-069A
Orbit
GEO
Country
Flag of CISCIS
Related business
Manufacturer
NPO PM
Mission
Non-operational spacecraft
Bus & Motor
RADUGA, Unknown motor
Mass
1,965 kg wet, ~1,800 kg dry
Launch date (UTC)
1981-07-30 (44 years ago)
Launch vehicle
PROTON-K/DM
Launch site
Tyuratam Missile And Space Complex (TTMTR)
Object type
Payload
Rocket body
Debris
Shape & HBR
Unknown
Radar Cross Section
Large (>1 m²)

Expand to show TLE details & history
Last TLE update: 6 hours ago

TLE from 6 hours ago
0 RADUGA 9
1 12618U 81069A   25298.92588963 -.00000356  00000-0  00000-0 0  9993
2 12618   7.1476 295.5510 0001990 246.0389 300.3237  1.00274640 44991
Epoch: 2025-10-25T22:13Z
TLE epoch observation values (Epoch: 2025-10-25T22:13:16.864Z)
Latitude
-0.80339°
Longitude
113.94249°
Altitude
35,781.204 km
Speed
3.075 km/s
True Right ascension
08h 07m 14s
True Declination
0° 48' 09"
Sunlit
Object was in daylight at epoch
Visualization orbit readout
Latitude
Unknown
Longitude
Unknown
Altitude
Unknown
Speed
Unknown
Apparent Right ascension
Unknown
Apparent Declination
Unknown
Sunlit
N/A
Visualization observer readout
Local Sidereal Time
23:45:46
Azimuth
Unknown
Elevation
Unknown
Doppler factor
Unknown
Orbital elements
Apogee altitude
35,795.232 km
Perigee altitude
35,778.45 km
Semi-major axis
42,164.978 km
Eccentricity
0.0002
Inclination
7.1476°
RAAN
295.551°
Arg. of periapsis
246.0389°
True anomaly
300.30401°
Mean anomaly
300.3237°
Eccentric anomaly
300.31386°
Mean motion
0.25068 °/min
Orbital period
1,436.11 mins
BSTAR
0
Loading maneuver chart data...
Computing Atmospheric mass density...
Loading historical data...
Loading historical data...
Loading historical data...
Loading historical data...
Loading historical data...
Loading historical data...
Loading historical data...

Documentation

Showing up to 5 results
|